Theta_e
310 310 309 310 310 310 310 310 310 310 311 312 313 314 315 316 316 316 315 316 316 317 316 317 318 319 319 320 323 325 324 328 331 332 331 335 334 340 339 338 343 343 340 344 343
309 309 309 310 310 310 310 310 310 311 312 313 314 315 315 316 317 319 316 316 318 319 319 319 318 318 320 321 322 322 320 322 327 329 327 332 337 340 341 341 343 341 340 344 346
309 309 310 310 310 310 310 310 310 311 313 314 315 315 315 316 319 322 318 320 320 319 318 318 317 318 322 321 321 321 320 320 328 333 331 329 333 339 341 341 341 344 344 345 345
310 310 310 310 310 310 311 310 311 312 314 315 315 315 315 317 319 322 322 324 321 320 318 317 320 322 320 320 321 321 322 325 330 333 331 327 334 338 341 341 340 339 344 344 344
310 310 310 310 310 311 311 311 311 313 314 315 315 315 315 317 322 320 318 318 317 318 319 320 321 323 321 321 320 320 321 324 329 328 331 329 332 338 338 342 342 344 344 342 342
310 310 310 310 311 311 311 311 312 313 315 315 315 315 315 316 321 321 321 319 319 321 322 323 324 323 322 321 320 323 322 323 324 328 329 328 330 334 333 343 344 343 343 341 340
309 310 310 310 311 311 311 311 312 314 315 315 315 315 317 322 324 321 322 323 323 324 324 324 324 323 323 320 323 323 321 320 322 327 327 331 331 330 336 343 343 343 342 342 340
309 309 310 310 311 311 311 312 313 315 315 315 315 315 321 324 324 323 323 323 323 323 323 324 323 323 321 323 321 319 318 319 318 325 328 324 325 325 337 341 340 341 340 340 339
310 310 310 311 311 312 311 312 314 315 315 315 315 318 323 323 323 323 323 323 323 323 324 323 323 322 322 318 318 316 321 321 323 323 326 323 326 326 335 340 337 339 339 339 339
310 311 311 311 311 311 312 313 315 315 316 316 318 318 323 323 323 323 323 323 323 323 323 323 323 318 314 316 320 322 323 322 322 321 319 321 323 321 331 336 337 337 338 340 339
311 311 311 311 311 312 312 315 316 318 321 321 320 320 321 323 324 323 324 323 323 322 319 321 318 319 319 318 320 323 323 325 324 321 321 320 320 319 326 336 336 336 336 338 338
310 311 312 311 312 312 313 315 319 322 322 324 324 324 321 320 321 323 322 323 322 320 321 318 320 321 320 322 323 322 323 322 323 322 321 321 324 324 327 335 336 336 335 336 337
310 311 311 312 312 313 313 315 317 322 320 323 323 323 324 323 322 324 323 323 321 320 321 320 321 324 323 323 324 323 324 324 324 323 321 320 325 324 328 334 336 336 335 335 335
310 311 312 313 314 315 320 322 322 324 317 320 324 323 324 325 323 324 324 323 323 324 324 321 321 324 323 325 322 325 324 326 326 323 324 319 324 323 323 329 334 335 335 335 336
314 311 313 317 321 324 322 322 323 324 319 322 323 325 323 323 324 324 324 324 323 324 324 325 324 325 325 325 324 325 325 323 323 323 319 320 321 322 322 325 328 334 336 336 336
316 313 315 319 323 322 322 323 322 318 321 323 324 323 321 322 323 325 325 325 324 325 325 324 324 324 324 323 323 323 323 320 319 317 320 320 323 324 322 324 323 323 333 336 336
316 316 314 320 323 322 322 323 318 319 320 324 321 321 321 321 321 325 324 323 323 325 326 324 324 324 326 324 322 321 319 321 321 322 323 319 323 321 321 322 322 326 331 333 334
316 317 315 317 321 321 322 317 321 321 324 324 324 320 321 320 321 325 324 324 324 324 327 324 327 327 327 324 324 322 320 320 325 322 320 321 324 322 321 322 323 329 330 331 334
316 317 316 315 320 320 322 318 319 322 327 327 324 320 320 323 321 324 323 323 324 324 328 328 328 326 325 325 324 325 323 319 319 320 321 320 323 322 322 322 321 326 330 329 330
315 317 317 316 318 320 317 318 322 325 325 326 326 327 329 329 324 322 323 327 327 326 326 325 328 327 329 326 326 325 321 324 320 327 327 322 324 323 323 323 321 322 324 326 328
314 317 324 318 315 321 315 319 323 324 322 323 325 328 329 328 327 324 328 329 329 325 324 323 324 326 326 326 327 326 323 319 318 320 323 324 322 319 320 320 319 321 322 322 323
312 314 323 317 319 316 316 320 322 321 323 323 324 325 327 326 332 331 331 329 331 326 327 326 321 326 326 324 325 324 324 318 320 322 321 319 320 319 318 320 321 321 321 322 322
311 315 323 322 317 315 317 321 323 324 327 325 324 325 326 327 328 332 330 331 329 331 328 325 322 323 324 323 323 327 323 319 316 316 320 320 321 321 321 321 322 322 323 322 322
312 314 320 323 321 318 321 321 321 324 325 325 324 325 325 326 325 330 329 329 327 329 329 327 322 322 323 321 322 325 323 322 320 320 321 321 321 323 321 321 321 321 322 321 320
313 315 322 319 322 324 322 322 323 322 325 324 322 323 324 326 327 330 329 329 325 327 329 322 327 328 326 327 325 325 325 324 321 320 322 322 322 320 319 318 321 321 321 320 319
311 320 322 320 322 322 321 324 323 323 325 325 326 325 325 328 328 331 328 327 326 326 326 320 326 326 325 326 326 327 326 325 325 322 323 322 324 321 321 321 321 321 320 320 320
318 322 323 321 319 318 319 319 320 320 322 326 326 327 327 327 328 328 328 327 326 324 325 323 324 322 325 327 326 322 326 326 324 323 322 324 323 322 321 320 321 321 320 320 322
Wind_Speed
9 9 9 8 8 8 8 7 7 7 6 6 8 10 13 16 17 19 21 11 8 9 11 10 7 9 12 11 1 3 4 2 5 5 7 18 4 21 5 26 10 10 18 27 21
9 9 9 8 8 7 7 6 6 6 5 6 8 12 16 19 20 12 2 9 11 7 5 4 6 9 5 3 1 4 3 7 9 8 9 26 19 24 10 22 10 18 30 27 26
8 8 8 7 8 7 7 6 6 5 5 6 10 13 18 20 13 5 3 7 8 6 2 6 7 6 3 5 2 3 6 4 9 16 24 19 20 12 26 5 27 36 36 34 30
8 8 8 7 7 7 7 6 6 5 5 7 11 15 19 12 2 6 2 7 6 4 3 3 3 3 2 2 4 2 13 7 2 14 21 16 18 8 24 12 36 35 42 38 35
8 8 8 7 7 7 6 6 6 5 6 8 12 16 18 11 4 4 6 7 7 4 2 1 4 4 2 6 6 4 9 5 7 14 20 23 17 13 19 21 35 39 41 40 37
9 8 8 7 7 7 6 6 6 6 7 9 13 16 16 7 5 3 5 8 6 3 2 5 6 11 10 5 1 3 8 4 9 8 17 15 8 13 14 38 37 39 41 40 40
8 8 8 7 7 7 6 7 6 6 7 9 12 16 19 3 5 4 1 2 2 6 10 11 13 10 6 7 9 4 3 4 1 8 6 16 2 6 23 41 36 41 40 40 37
7 7 7 7 7 7 6 7 7 7 8 9 12 15 8 3 5 5 5 6 7 10 15 16 11 13 6 9 4 5 6 5 6 2 4 5 4 3 33 38 31 37 33 38 37
5 6 6 6 6 6 6 6 7 7 9 10 11 8 7 4 5 3 6 10 12 13 9 13 10 3 2 3 7 9 3 4 4 7 4 2 3 14 34 31 21 28 30 35 37
4 5 5 5 6 6 5 6 8 8 9 9 10 7 3 5 7 6 7 6 6 7 6 6 1 2 3 7 0 2 1 4 5 7 9 6 3 7 25 33 30 30 32 36 36
2 3 4 5 4 5 4 4 5 5 6 9 7 10 13 9 7 5 6 6 6 4 3 5 6 3 7 4 4 1 5 3 2 6 4 4 6 8 4 17 20 25 31 34 35
1 2 3 4 4 4 7 4 2 4 8 10 8 16 17 18 10 11 7 4 1 3 2 7 3 7 2 5 5 4 5 4 4 6 4 7 8 7 8 8 23 28 29 33 35
2 1 3 3 3 6 9 3 3 16 3 7 9 11 10 5 7 12 6 7 2 4 2 5 8 7 4 4 6 4 4 1 2 3 3 6 5 6 6 5 10 16 21 25 26
6 0 3 4 6 4 5 11 13 2 5 6 3 5 11 5 5 7 7 3 1 1 1 3 5 7 6 3 4 3 2 2 4 3 2 3 3 4 4 2 4 10 16 21 22
10 2 4 6 2 5 8 9 2 5 2 4 5 3 5 8 2 2 7 4 5 2 5 2 5 6 6 2 3 3 2 3 2 1 5 8 5 5 2 1 4 11 17 20 21
9 4 4 4 0 8 9 3 5 6 3 5 5 5 5 4 1 3 3 3 1 4 4 2 2 2 3 4 4 2 3 7 4 3 4 3 4 3 2 5 3 6 17 18 16
8 5 4 5 3 11 7 6 5 3 4 5 2 0 3 4 2 4 2 1 3 4 4 5 5 4 3 4 7 9 8 5 6 6 3 6 4 7 4 3 7 10 13 14 12
7 6 5 8 5 8 5 6 2 3 6 6 3 3 6 4 4 3 3 1 2 5 3 4 5 2 0 4 5 4 5 5 1 1 5 5 2 4 2 2 6 9 11 9 9
7 7 5 6 6 5 4 4 6 4 4 5 6 4 3 3 4 4 6 5 6 6 6 4 2 3 3 3 5 1 4 3 6 2 2 3 2 3 1 2 6 9 10 10 13
8 6 4 5 7 1 5 4 4 4 9 4 2 2 3 3 2 5 5 2 2 3 8 6 3 2 4 7 7 3 5 3 4 0 2 4 4 5 6 3 1 8 13 14 16
7 4 2 8 11 3 3 5 5 7 10 5 2 3 0 2 3 3 4 2 1 3 2 4 4 4 3 2 3 3 2 6 4 4 4 1 6 7 9 10 9 11 15 18 16
4 2 3 15 5 3 3 4 5 8 18 8 0 3 1 3 5 3 3 1 5 5 4 2 5 2 1 5 4 2 3 4 5 4 2 4 7 3 7 8 11 17 14 10 9
7 3 4 12 3 1 4 4 6 4 4 3 2 0 2 3 3 2 3 5 8 3 5 5 3 3 7 6 5 3 2 4 4 3 4 4 6 3 4 11 14 16 10 11 13
4 3 2 4 3 6 2 5 5 5 7 5 4 4 3 6 5 3 2 7 6 6 8 5 3 6 6 5 3 3 5 3 4 3 3 6 6 4 4 7 10 12 11 15 15
4 2 2 2 2 1 4 2 3 4 4 8 5 3 5 2 3 4 2 2 6 4 5 4 3 2 2 1 2 1 2 5 5 6 5 6 3 7 7 7 9 10 15 16 15
2 3 3 2 4 1 3 2 2 2 3 5 4 2 2 5 5 4 3 2 3 2 3 3 1 2 2 1 5 3 6 6 3 3 1 5 1 3 3 9 11 18 18 16 15
2 2 2 3 3 2 1 3 2 3 3 3 0 4 4 5 5 1 7 2 1 6 2 3 5 3 3 3 5 5 3 3 2 2 5 2 5 4 5 8 8 16 16 14 12
Wind_Direction
243 253 260 263 268 270 269 269 274 279 283 301 313 320 319 313 305 292 276 253 219 210 233 252 264 276 288 284 257 195 60 218 226 199 165 160 146 181 206 144 143 186 162 153 152
242 251 258 261 265 266 265 265 266 269 286 307 318 320 319 317 316 313 190 176 169 201 239 282 309 326 316 313 279 128 138 242 198 189 164 173 180 181 135 154 122 136 139 159 166
236 247 253 257 261 260 261 259 258 268 286 304 317 321 321 327 327 28 143 149 169 194 263 310 329 330 337 329 248 188 206 232 215 195 161 164 186 194 140 206 155 149 153 165 171
236 243 250 254 255 251 252 252 253 260 274 306 317 326 330 330 305 352 230 199 217 231 295 322 359 340 322 287 221 279 252 222 230 178 157 173 165 126 170 183 170 160 165 170 173
239 243 248 250 250 246 247 247 247 250 276 307 322 328 340 319 304 63 107 153 147 136 138 276 311 349 309 305 283 200 276 222 259 175 184 167 174 177 205 156 165 165 173 176 179
243 246 246 246 245 246 247 245 243 244 280 310 322 328 332 300 7 87 84 104 111 92 358 311 322 321 301 270 215 297 323 196 154 179 161 151 155 161 201 160 163 176 180 182 186
243 242 245 240 242 248 246 242 239 246 282 310 321 323 315 285 343 300 289 46 334 323 311 318 316 298 320 306 332 298 217 0 126 162 147 130 51 192 153 162 172 187 185 185 188
236 237 237 233 240 249 245 240 234 253 285 307 314 318 274 286 276 270 304 325 319 318 316 311 320 281 249 309 350 18 43 5 336 71 116 44 225 209 162 164 178 187 185 189 188
236 230 229 232 242 247 242 234 234 260 284 300 303 306 291 252 274 340 315 319 326 328 320 308 293 262 320 37 19 19 9 349 355 39 129 74 265 71 169 169 168 180 185 191 191
236 227 229 233 239 242 237 226 242 269 284 291 277 299 277 337 296 310 307 317 351 324 335 360 20 35 35 50 178 273 63 24 40 328 56 27 22 54 166 174 169 177 187 196 198
228 220 221 223 232 236 223 217 262 264 263 249 284 269 300 331 301 254 315 290 318 314 29 5 45 293 266 156 179 211 113 104 327 335 80 20 7 355 89 135 144 174 192 199 203
187 205 208 216 217 224 202 204 121 12 310 290 283 271 278 286 295 261 278 231 29 306 22 9 294 264 48 135 116 195 108 3 328 349 69 47 33 15 56 152 180 180 195 203 210
27 174 191 197 202 210 224 259 348 320 277 285 258 270 279 317 239 272 255 252 222 303 221 170 244 32 108 98 88 25 79 11 221 343 45 98 16 11 19 57 193 181 198 205 212
20 131 180 175 199 230 78 348 316 269 64 283 247 267 250 259 292 271 261 181 117 244 40 218 308 128 111 123 123 53 257 243 265 87 201 53 211 358 20 351 289 203 205 212 213
12 355 192 194 85 60 359 337 4 120 88 237 220 216 191 171 255 83 197 176 155 234 83 272 138 113 85 28 142 220 353 33 13 92 92 346 79 263 180 88 258 238 224 221 217
359 343 230 240 227 9 14 100 126 44 275 311 182 195 116 207 257 159 173 106 96 67 26 7 130 65 112 58 43 29 16 42 48 54 61 267 123 257 226 169 223 243 224 216 209
340 333 289 222 149 352 34 130 47 119 324 314 216 187 159 161 210 182 164 122 130 88 358 12 338 320 149 85 10 57 46 357 12 12 244 325 55 236 258 184 178 180 190 182 194
336 320 293 249 274 351 77 57 117 259 265 289 289 124 177 155 241 209 127 180 124 89 103 111 343 336 217 129 149 66 108 135 45 303 280 336 136 259 246 152 150 151 145 165 190
330 314 306 252 251 12 105 75 207 219 291 302 318 103 358 346 189 137 197 200 187 163 129 132 282 321 15 121 106 133 41 173 105 12 42 290 320 356 104 185 131 149 171 172 178
332 318 314 215 211 48 76 213 240 233 332 322 72 62 130 300 170 163 163 288 201 208 143 190 119 347 349 56 36 94 154 38 14 88 288 304 284 234 229 208 228 140 157 167 187
328 322 348 175 180 103 133 232 280 289 1 333 329 49 272 283 154 151 164 340 293 102 344 119 103 276 37 39 196 12 32 55 111 132 172 224 269 216 209 196 194 182 158 163 168
331 30 144 159 86 74 144 199 305 305 323 258 196 59 346 316 36 74 120 310 321 137 100 35 121 104 190 320 319 177 161 124 119 249 196 158 269 301 254 204 180 185 187 178 186
344 303 140 181 119 353 298 279 259 284 294 278 136 251 292 15 76 49 53 26 14 68 147 180 30 52 354 354 358 28 60 105 113 80 209 136 266 301 134 159 188 175 192 193 184
352 12 5 181 108 143 160 266 269 303 269 242 161 118 60 33 30 160 91 22 23 72 78 97 99 148 185 198 193 325 351 62 115 107 225 230 274 234 210 185 184 173 178 176 175
15 27 24 306 17 110 176 270 273 314 316 19 344 80 144 87 25 15 47 65 31 34 46 87 106 152 158 236 54 281 314 311 199 211 162 274 232 294 216 212 200 206 180 177 178
17 19 0 308 311 307 148 223 252 325 252 325 358 25 75 138 161 202 154 170 180 35 77 7 147 81 355 29 35 338 332 314 307 107 3 98 59 239 193 184 187 189 182 192 191
217 261 335 321 343 87 215 326 332 312 317 323 188 108 107 180 166 295 214 288 128 137 109 87 123 87 257 357 13 4 295 345 36 8 150 163 229 195 181 182 194 192 201 210 224